N8289A CYTZ-CYTZ

Flight info

Callsign N8289A
Flight time 0h 12m
Altitude 2500
Route DCT
Aircraft P28A/L-SDFGRY/C

Departure

Time 2026-04-26 02:40
Airport Billy Bishop Toronto City Airport (CYTZ)

Arrival

Time 2026-04-26 02:52
Airport Billy Bishop Toronto City Airport (CYTZ)
Time Latitude Longitude Altitude Speed Heading
2026-04-26 02:26 43.63250 -79.39493 250 ft 0 kts 53°
2026-04-26 02:34 43.63250 -79.39492 250 ft 1 kts 53°
2026-04-26 02:34 43.63254 -79.39457 250 ft 7 kts 118°
2026-04-26 02:34 43.63208 -79.39384 250 ft 13 kts 141°
2026-04-26 02:34 43.63113 -79.39312 250 ft 18 kts 173°
2026-04-26 02:35 43.63053 -79.39449 250 ft 19 kts 250°
2026-04-26 02:35 43.63012 -79.39617 250 ft 18 kts 252°
2026-04-26 02:35 43.62972 -79.39777 250 ft 18 kts 254°
2026-04-26 02:35 43.62997 -79.39931 250 ft 17 kts 294°
2026-04-26 02:36 43.63015 -79.40075 250 ft 15 kts 237°
2026-04-26 02:36 43.62949 -79.40185 250 ft 15 kts 219°
2026-04-26 02:36 43.62869 -79.40280 250 ft 15 kts 220°
2026-04-26 02:36 43.62814 -79.40335 250 ft 0 kts 166°
2026-04-26 02:37 43.62813 -79.40335 250 ft 1 kts 165°
2026-04-26 02:38 43.62778 -79.40319 248 ft 9 kts 152°
2026-04-26 02:38 43.62767 -79.40253 249 ft 10 kts 72°
2026-04-26 02:38 43.62832 -79.39989 249 ft 50 kts 70°
2026-04-26 02:38 43.62968 -79.39401 316 ft 69 kts 72°
2026-04-26 02:39 43.63049 -79.38737 457 ft 70 kts 75°
2026-04-26 02:39 43.63160 -79.38099 611 ft 67 kts 66°
2026-04-26 02:39 43.63323 -79.37517 754 ft 65 kts 62°
2026-04-26 02:39 43.63501 -79.36940 852 ft 68 kts 64°
2026-04-26 02:40 43.63496 -79.36265 912 ft 77 kts 104°
2026-04-26 02:40 43.63170 -79.35663 1012 ft 81 kts 135°
2026-04-26 02:40 43.62688 -79.35311 1183 ft 78 kts 150°
2026-04-26 02:40 43.62141 -79.35140 1293 ft 81 kts 161°
2026-04-26 02:41 43.61585 -79.35041 1296 ft 84 kts 167°
2026-04-26 02:41 43.61012 -79.35296 1304 ft 91 kts 213°
2026-04-26 02:41 43.60685 -79.36054 1308 ft 93 kts 247°
2026-04-26 02:41 43.60459 -79.36882 1292 ft 94 kts 252°
2026-04-26 02:42 43.60264 -79.37739 1298 ft 95 kts 253°
2026-04-26 02:42 43.60096 -79.38602 1326 ft 92 kts 256°
2026-04-26 02:42 43.59930 -79.39471 1321 ft 93 kts 250°
2026-04-26 02:42 43.59698 -79.40309 1323 ft 94 kts 248°
2026-04-26 02:43 43.59341 -79.42010 1264 ft 93 kts 278°
2026-04-26 02:43 43.59570 -79.42804 1206 ft 87 kts 313°
2026-04-26 02:43 43.60029 -79.43310 1112 ft 83 kts 338°
2026-04-26 02:44 43.60561 -79.43384 947 ft 80 kts 25°
2026-04-26 02:44 43.60918 -79.42844 840 ft 74 kts 55°
2026-04-26 02:44 43.61407 -79.42622 644 ft 81 kts
2026-04-26 02:44 43.61895 -79.42522 512 ft 65 kts 21°
2026-04-26 02:45 43.62234 -79.42165 383 ft 62 kts 54°
2026-04-26 02:45 43.62398 -79.41602 377 ft 66 kts 68°
2026-04-26 02:45 43.62496 -79.40969 452 ft 69 kts 73°
2026-04-26 02:45 43.62652 -79.40337 519 ft 70 kts 69°
2026-04-26 02:46 43.62791 -79.39659 663 ft 73 kts 71°
2026-04-26 02:46 43.62939 -79.39000 869 ft 73 kts 66°
2026-04-26 02:46 43.62995 -79.38237 961 ft 89 kts 102°
2026-04-26 02:46 43.62521 -79.37637 1068 ft 102 kts 155°
2026-04-26 02:47 43.61861 -79.37438 1244 ft 96 kts 162°
2026-04-26 02:47 43.61196 -79.37294 1325 ft 91 kts 167°
2026-04-26 02:47 43.60539 -79.37186 1273 ft 100 kts 164°
2026-04-26 02:47 43.59865 -79.37326 1346 ft 103 kts 203°
2026-04-26 02:48 43.59423 -79.38106 1390 ft 106 kts 244°
2026-04-26 02:48 43.59112 -79.39054 1367 ft 110 kts 245°
2026-04-26 02:48 43.58823 -79.40009 1392 ft 107 kts 249°
2026-04-26 02:48 43.58583 -79.40996 1363 ft 108 kts 252°
2026-04-26 02:49 43.58381 -79.41980 1350 ft 106 kts 258°
2026-04-26 02:49 43.58303 -79.42979 1283 ft 104 kts 281°
2026-04-26 02:49 43.58635 -79.43792 1158 ft 94 kts 324°
2026-04-26 02:49 43.59183 -79.44257 1017 ft 91 kts 336°
2026-04-26 02:50 43.59733 -79.44648 937 ft 85 kts 340°
2026-04-26 02:50 43.60279 -79.44961 837 ft 85 kts 346°
2026-04-26 02:50 43.60847 -79.45034 750 ft 82 kts 11°
2026-04-26 02:50 43.61374 -79.44760 668 ft 81 kts 32°
2026-04-26 02:51 43.61728 -79.44208 621 ft 75 kts 61°
2026-04-26 02:51 43.61903 -79.43544 594 ft 73 kts 69°
2026-04-26 02:51 43.62077 -79.42911 554 ft 67 kts 67°
2026-04-26 02:51 43.62230 -79.42300 542 ft 68 kts 66°
2026-04-26 02:52 43.62388 -79.41684 509 ft 70 kts 66°
2026-04-26 02:52 43.62556 -79.41053 436 ft 68 kts 68°
2026-04-26 02:52 43.62709 -79.40459 309 ft 63 kts 65°
2026-04-26 02:52 43.62842 -79.39931 250 ft 48 kts 69°
2026-04-26 02:53 43.62931 -79.39584 252 ft 31 kts 71°
2026-04-26 02:53 43.62990 -79.39343 253 ft 24 kts 69°
2026-04-26 02:53 43.63043 -79.39229 252 ft 9 kts 353°
2026-04-26 02:53 43.63088 -79.39304 250 ft 12 kts 253°
2026-04-26 02:54 43.63059 -79.39426 250 ft 15 kts 251°
2026-04-26 02:54 43.63024 -79.39568 250 ft 16 kts 253°
2026-04-26 02:54 43.62985 -79.39725 250 ft 18 kts 250°
2026-04-26 02:54 43.62951 -79.39897 250 ft 19 kts 250°
2026-04-26 02:55 43.62900 -79.40020 250 ft 10 kts 180°
2026-04-26 02:55 43.62860 -79.39987 250 ft 10 kts 139°
2026-04-26 02:55 43.62847 -79.39926 250 ft 11 kts 71°
2026-04-26 02:55 43.62924 -79.39615 252 ft 56 kts 71°
2026-04-26 02:56 43.63064 -79.38989 320 ft 74 kts 72°
2026-04-26 02:56 43.63183 -79.38284 469 ft 74 kts 72°
2026-04-26 02:56 43.63303 -79.37595 710 ft 71 kts 71°
2026-04-26 02:56 43.63423 -79.36928 902 ft 72 kts 72°
2026-04-26 02:57 43.63600 -79.36289 1079 ft 74 kts 54°
2026-04-26 02:57 43.64056 -79.36004 1276 ft 80 kts
2026-04-26 02:57 43.64596 -79.36325 1462 ft 87 kts 342°
2026-04-26 02:57 43.65174 -79.36735 1610 ft 93 kts 341°
2026-04-26 02:58 43.65742 -79.37096 1800 ft 93 kts 347°
2026-04-26 02:58 43.66330 -79.37427 2017 ft 90 kts 351°
2026-04-26 02:58 43.66923 -79.37742 2208 ft 92 kts 348°
2026-04-26 02:58 43.67495 -79.38159 2401 ft 95 kts 342°
2026-04-26 02:59 43.68044 -79.38702 2589 ft 99 kts 333°
2026-04-26 02:59 43.68551 -79.39368 2749 ft 102 kts 325°
2026-04-26 02:59 43.68915 -79.40270 2736 ft 116 kts 291°
2026-04-26 02:59 43.68900 -79.41391 2770 ft 114 kts 261°
2026-04-26 03:00 43.68748 -79.42484 2736 ft 119 kts 252°
2026-04-26 03:00 43.68286 -79.43382 2725 ft 111 kts 205°
2026-04-26 03:00 43.67622 -79.43769 2762 ft 98 kts 186°
2026-04-26 03:00 43.66951 -79.44085 2594 ft 105 kts 183°
2026-04-26 03:01 43.66247 -79.44257 2347 ft 105 kts 173°
2026-04-26 03:01 43.65532 -79.44169 1976 ft 100 kts 156°
2026-04-26 03:01 43.64923 -79.43794 1654 ft 92 kts 142°
2026-04-26 03:01 43.64364 -79.43376 1352 ft 90 kts 141°
2026-04-26 03:02 43.63867 -79.42851 1019 ft 92 kts 134°
2026-04-26 03:02 43.63409 -79.42255 791 ft 87 kts 128°
2026-04-26 03:02 43.63050 -79.41627 584 ft 78 kts 118°
2026-04-26 03:02 43.62844 -79.41013 425 ft 66 kts 100°
2026-04-26 03:03 43.62791 -79.40426 290 ft 57 kts 82°
2026-04-26 03:03 43.62853 -79.39876 394 ft 59 kts 68°
2026-04-26 03:03 43.62977 -79.39307 564 ft 62 kts 61°
2026-04-26 03:03 43.63374 -79.39184 726 ft 72 kts 339°
2026-04-26 03:04 43.63566 -79.39842 841 ft 85 kts 270°
2026-04-26 03:04 43.63389 -79.40633 750 ft 87 kts 227°
2026-04-26 03:04 43.62897 -79.40776 633 ft 69 kts 133°
2026-04-26 03:04 43.62780 -79.40210 363 ft 70 kts 67°
2026-04-26 03:05 43.62905 -79.39679 251 ft 44 kts 70°
2026-04-26 03:05 43.62946 -79.39525 253 ft 0 kts 68°
2026-04-26 03:05 43.62971 -79.39426 253 ft 33 kts 72°
2026-04-26 03:05 43.63084 -79.38958 271 ft 63 kts 69°
2026-04-26 03:06 43.63214 -79.38388 397 ft 64 kts 63°
2026-04-26 03:06 43.63521 -79.38015 575 ft 66 kts 359°
2026-04-26 03:06 43.63720 -79.38654 689 ft 88 kts 268°
2026-04-26 03:06 43.63755 -79.39482 882 ft 88 kts 297°
2026-04-26 03:07 43.63981 -79.40231 1118 ft 89 kts 286°
2026-04-26 03:07 43.64104 -79.41127 1248 ft 100 kts 283°
2026-04-26 03:07 43.64200 -79.42107 1422 ft 106 kts 277°
2026-04-26 03:07 43.64237 -79.43152 1584 ft 111 kts 274°
2026-04-26 03:08 43.64267 -79.44246 1711 ft 118 kts 270°
2026-04-26 03:08 43.64142 -79.45424 1723 ft 128 kts 260°
2026-04-26 03:08 43.63952 -79.46635 1721 ft 134 kts 257°
2026-04-26 03:08 43.63724 -79.47905 1768 ft 137 kts 254°
2026-04-26 03:09 43.63404 -79.49173 1778 ft 141 kts 247°
2026-04-26 03:09 43.63067 -79.50292 1504 ft 123 kts 243°
2026-04-26 03:09 43.62631 -79.51288 1096 ft 119 kts 235°
2026-04-26 03:09 43.62227 -79.52255 837 ft 115 kts 246°
2026-04-26 03:10 43.61925 -79.53267 652 ft 112 kts 250°
2026-04-26 03:10 43.61678 -79.54268 528 ft 109 kts 251°
2026-04-26 03:10 43.61446 -79.55280 495 ft 118 kts 255°
2026-04-26 03:10 43.61256 -79.56416 615 ft 116 kts 257°
2026-04-26 03:11 43.60961 -79.57439 756 ft 118 kts 244°
2026-04-26 03:11 43.60543 -79.58375 957 ft 114 kts 226°
2026-04-26 03:11 43.59965 -79.59154 1097 ft 114 kts 222°
2026-04-26 03:11 43.59333 -79.59891 1142 ft 122 kts 220°
2026-04-26 03:12 43.58690 -79.60579 1352 ft 112 kts 193°
2026-04-26 03:12 43.58322 -79.60033 1589 ft 83 kts 72°
2026-04-26 03:12 43.58532 -79.59175 1549 ft 103 kts 72°
2026-04-26 03:12 43.58741 -79.58179 1564 ft 109 kts 74°
2026-04-26 03:13 43.58893 -79.57196 1696 ft 104 kts 79°
2026-04-26 03:13 43.59045 -79.56181 1640 ft 111 kts 76°
2026-04-26 03:13 43.59243 -79.55143 1657 ft 112 kts 74°
2026-04-26 03:13 43.59470 -79.54037 1424 ft 123 kts 74°
2026-04-26 03:14 43.59680 -79.52916 1349 ft 121 kts 76°
2026-04-26 03:14 43.59904 -79.51782 1184 ft 125 kts 72°
2026-04-26 03:14 43.60182 -79.50645 1115 ft 125 kts 70°
2026-04-26 03:14 43.60451 -79.49507 1056 ft 124 kts 69°
2026-04-26 03:15 43.60763 -79.48400 1018 ft 124 kts 69°
2026-04-26 03:15 43.61004 -79.47234 924 ft 127 kts 74°
2026-04-26 03:15 43.61277 -79.46141 924 ft 118 kts 65°
2026-04-26 03:15 43.61589 -79.45136 979 ft 105 kts 71°
2026-04-26 03:16 43.61791 -79.44119 878 ft 105 kts 70°
2026-04-26 03:16 43.62029 -79.43229 683 ft 102 kts 69°
2026-04-26 03:16 43.62253 -79.42325 565 ft 94 kts 70°
2026-04-26 03:16 43.62456 -79.41531 490 ft 82 kts 71°
2026-04-26 03:17 43.62618 -79.40842 381 ft 69 kts 69°
2026-04-26 03:17 43.62763 -79.40248 279 ft 63 kts 70°
2026-04-26 03:17 43.62891 -79.39746 251 ft 46 kts 71°
2026-04-26 03:17 43.62980 -79.39386 253 ft 37 kts 71°
2026-04-26 03:18 43.63066 -79.39247 251 ft 15 kts 327°
2026-04-26 03:18 43.63149 -79.39331 250 ft 14 kts 339°
2026-04-26 03:18 43.63228 -79.39395 250 ft 13 kts 324°
2026-04-26 03:18 43.63261 -79.39488 250 ft 13 kts 223°
2026-04-26 03:19 43.63243 -79.39473 250 ft 0 kts 53°